Weather History for KMVN - December, 2011

Change the Weather History Date:

Thursday, December 15, 2011

  Actual Average Record
Temperature  
Mean Temperature 48 °F -  
Max Temperature 60 °F 40 °F 60 °F (2011)
Min Temperature 35 °F 25 °F 15 °F (2004)
Degree Days  
Heating Degree Days 18    
Moisture  
Dew Point 44 °F    
Average Humidity 79    
Maximum Humidity 94    
Minimum Humidity 65    
Precipitation  
Precipitation 0.13 in - - ()
Sea Level Pressure  
Sea Level Pressure 30.07 in    
Wind  
Wind Speed 13 mph (West)    
Max Wind Speed 20 mph    
Max Gust Speed 28 mph    
Visibility 10 miles    
Events      
Averages and records for this station are not official NWS values.
T = Trace of Precipitation, MM = Missing Value Source: NWS Daily Summary

Daily Weather History Graph

Daily Weather History Graph

Search for Another Location

Airport or City:

Trip Planner

Search our weather history database for the weather conditions in past years. The results will help you decide how hot, cold, wet, or windy it might be!

Date:

Astronomy

Dec. 15, 2011 Rise Set
Actual Time 7:05 AM CST 4:36 PM CST
Civil Twilight 6:35 AM CST 5:05 PM CST
Nautical Twilight 6:02 AM CST 5:38 PM CST
Astronomical Twilight 5:29 AM CST 6:11 PM CST
Moon 9:58 PM CST (12/15) 10:24 AM CST (12/15)
Length of Visible Light 10h 30m
Length of Day
9h 31m
Waning Gibbous, 74% of the Moon is Illuminated
Dec 15
Waning Gibbous
Dec 17
Last Quarter
Dec 24
New
Jan 1
First Quarter
Jan 9
Full

Hourly Weather History & Observations

Time (CST) Temp. Windchill Dew Point Humidity Pressure Visibility Wind Dir Wind Speed Gust Speed Precip Events Conditions
12:15 AM 57.2 °F - 55.4 °F 94% 29.90 in 10.0 mi South 19.6 mph 25.3 mph 0.05 in   Overcast
12:35 AM 57.2 °F - 55.4 °F 94% 29.88 in 10.0 mi South 17.3 mph 25.3 mph 0.09 in   Overcast
12:55 AM 57.2 °F - 55.4 °F 94% 29.88 in 10.0 mi SSW 18.4 mph 23.0 mph 0.11 in   Overcast
1:15 AM 57.2 °F - 55.4 °F 94% 29.87 in 10.0 mi SSW 17.3 mph 27.6 mph 0.01 in   Overcast
1:35 AM 57.2 °F - 55.4 °F 94% 29.87 in 10.0 mi South 16.1 mph 27.6 mph 0.01 in   Overcast
1:55 AM 57.2 °F - 55.4 °F 94% 29.87 in 10.0 mi SSW 19.6 mph - 0.01 in   Overcast
2:15 AM 57.2 °F - 55.4 °F 94% 29.87 in 10.0 mi SSW 16.1 mph 26.5 mph N/A   Overcast
2:55 AM 57.2 °F - 55.4 °F 94% 29.87 in 10.0 mi SSW 18.4 mph - N/A   Overcast
3:15 AM 57.2 °F - 55.4 °F 94% 29.86 in 10.0 mi SSW 13.8 mph - N/A   Overcast
3:35 AM 59.0 °F - 57.2 °F 94% 29.86 in 10.0 mi SSW 15.0 mph - N/A   Overcast
3:55 AM 59.0 °F - 57.2 °F 94% 29.86 in 10.0 mi SSW 17.3 mph 23.0 mph N/A   Overcast
4:15 AM 60.8 °F - 57.2 °F 88% 29.86 in 10.0 mi SSW 18.4 mph 23.0 mph N/A   Overcast
4:35 AM 60.8 °F - 57.2 °F 88% 29.86 in 10.0 mi SW 19.6 mph 25.3 mph N/A   Overcast
4:55 AM 60.8 °F - 57.2 °F 88% 29.87 in 10.0 mi SSW 17.3 mph 25.3 mph 0.01 in   Overcast
5:15 AM 60.8 °F - 57.2 °F 88% 29.87 in 10.0 mi SSW 17.3 mph 23.0 mph N/A   Overcast
5:35 AM 60.8 °F - 57.2 °F 88% 29.87 in 10.0 mi SSW 17.3 mph 21.9 mph N/A   Overcast
6:15 AM 60.8 °F - 57.2 °F 88% 29.89 in 10.0 mi SW 15.0 mph 20.7 mph N/A   Mostly Cloudy
6:35 AM 60.8 °F - 57.2 °F 88% 29.89 in 10.0 mi SSW 16.1 mph - N/A   Overcast
6:55 AM 59.0 °F - 57.2 °F 94% 29.90 in 10.0 mi SSW 13.8 mph - N/A   Overcast
7:15 AM 59.0 °F - 57.2 °F 94% 29.90 in 10.0 mi SW 12.7 mph - N/A   Overcast
7:35 AM 59.0 °F - 55.4 °F 88% 29.90 in 10.0 mi SW 15.0 mph - N/A   Scattered Clouds
7:55 AM 59.0 °F - 55.4 °F 88% 29.91 in 10.0 mi SW 12.7 mph - N/A   Clear
8:15 AM 60.8 °F - 55.4 °F 82% 29.92 in 10.0 mi SW 12.7 mph - N/A   Scattered Clouds
8:35 AM 60.8 °F - 55.4 °F 82% 29.93 in 10.0 mi SW 16.1 mph 20.7 mph N/A   Mostly Cloudy
9:15 AM 60.8 °F - 53.6 °F 77% 29.97 in 10.0 mi West 11.5 mph 17.3 mph N/A   Overcast
9:35 AM 59.0 °F - 51.8 °F 77% 29.98 in 10.0 mi West 8.1 mph 17.3 mph N/A   Mostly Cloudy
9:55 AM 59.0 °F - 51.8 °F 77% 29.99 in 10.0 mi West 10.4 mph 16.1 mph N/A   Mostly Cloudy
10:15 AM 57.2 °F - 51.8 °F 82% 30.00 in 10.0 mi West 12.7 mph 16.1 mph N/A   Mostly Cloudy
10:35 AM 57.2 °F - 50.0 °F 77% 30.00 in 10.0 mi West 13.8 mph 18.4 mph N/A   Overcast
10:55 AM 57.2 °F - 50.0 °F 77% 30.00 in 10.0 mi West 11.5 mph 16.1 mph N/A   Overcast
11:15 AM 55.4 °F - 48.2 °F 77% 30.01 in 10.0 mi WNW 6.9 mph 16.1 mph N/A   Overcast
11:35 AM 53.6 °F - 48.2 °F 82% 30.03 in 10.0 mi WNW 9.2 mph 17.3 mph N/A   Overcast
11:55 AM 53.6 °F - 46.4 °F 77% 30.02 in 10.0 mi WNW 9.2 mph 16.1 mph N/A   Mostly Cloudy
12:35 PM 51.8 °F - 44.6 °F 76% 30.04 in 10.0 mi WNW 8.1 mph 16.1 mph N/A   Overcast
12:55 PM 51.8 °F - 42.8 °F 71% 30.06 in 10.0 mi West 5.8 mph 16.1 mph N/A   Overcast
1:15 PM 48.2 °F - 42.8 °F 82% 30.06 in 10.0 mi NW 8.1 mph 17.3 mph N/A   Overcast
1:35 PM - - - N/A% 30.07 in 10.0 mi NW 5.8 mph - N/A   Overcast
1:55 PM - - - N/A% 30.08 in 10.0 mi WNW 8.1 mph - N/A   Overcast
2:15 PM - - - N/A% 30.09 in 10.0 mi WNW 5.8 mph - N/A   Mostly Cloudy
2:35 PM - - - N/A% 30.11 in 10.0 mi WNW 9.2 mph 16.1 mph N/A   Scattered Clouds
2:55 PM 44.6 °F 39.2 °F 35.6 °F 71% 30.13 in 10.0 mi WNW 10.4 mph 18.4 mph N/A   Overcast
3:15 PM 44.6 °F 40.7 °F 35.6 °F 71% 30.14 in 10.0 mi NW 6.9 mph - N/A   Overcast
3:35 PM 42.8 °F 39.3 °F 33.8 °F 70% 30.15 in 10.0 mi North 5.8 mph - N/A   Overcast
3:55 PM 42.8 °F - 33.8 °F 70% 30.17 in 10.0 mi Calm Calm - N/A   Overcast
4:15 PM 42.8 °F 39.3 °F 33.8 °F 70% 30.17 in 10.0 mi NW 5.8 mph - N/A   Overcast
4:35 PM 42.8 °F 39.3 °F 33.8 °F 70% 30.18 in 10.0 mi NNW 5.8 mph - N/A   Overcast
4:55 PM 42.8 °F 38.6 °F 33.8 °F 70% 30.19 in 10.0 mi NNW 6.9 mph - N/A   Overcast
5:15 PM 41.0 °F 38.0 °F 32.0 °F 70% 30.20 in 10.0 mi NW 4.6 mph - N/A   Overcast
5:35 PM 41.0 °F 37.1 °F 30.2 °F 65% 30.22 in 10.0 mi NNW 5.8 mph - N/A   Overcast
5:55 PM 39.2 °F 35.9 °F 30.2 °F 70% 30.22 in 10.0 mi NW 4.6 mph - N/A   Overcast
6:15 PM 39.2 °F 35.0 °F 30.2 °F 70% 30.24 in 10.0 mi NW 5.8 mph - N/A   Overcast
6:35 PM 39.2 °F 37.0 °F 30.2 °F 70% 30.24 in 10.0 mi NNW 3.5 mph - N/A   Overcast
6:55 PM 39.2 °F 35.9 °F 30.2 °F 70% 30.26 in 10.0 mi NNW 4.6 mph - N/A   Overcast
7:15 PM 37.4 °F 32.8 °F 28.4 °F 70% 30.27 in 10.0 mi NNW 5.8 mph - N/A   Overcast
7:35 PM 37.4 °F 31.4 °F 28.4 °F 70% 30.29 in 10.0 mi NNW 8.1 mph - N/A   Overcast
7:55 PM 37.4 °F - 26.6 °F 65% 30.30 in 10.0 mi Calm Calm - N/A   Overcast
8:35 PM 37.4 °F - 26.6 °F 65% 30.32 in 10.0 mi Calm Calm - N/A   Overcast
8:55 PM 37.4 °F 34.9 °F 26.6 °F 65% 30.33 in 10.0 mi NNW 3.5 mph - N/A   Mostly Cloudy
9:15 PM 35.6 °F 31.7 °F 26.6 °F 70% 30.33 in 10.0 mi North 4.6 mph - N/A   Partly Cloudy
9:35 PM 35.6 °F 32.8 °F 24.8 °F 65% 30.33 in 10.0 mi North 3.5 mph - N/A   Clear
9:55 PM 35.6 °F 32.8 °F 26.6 °F 70% 30.33 in 10.0 mi North 3.5 mph - N/A   Clear
10:15 PM 35.6 °F - 24.8 °F 65% 30.32 in 10.0 mi Calm Calm - N/A   Clear
10:35 PM 35.6 °F - 26.6 °F 70% 30.34 in 10.0 mi Calm Calm - N/A   Clear
10:55 PM 35.6 °F - 26.6 °F 70% 30.35 in 10.0 mi Calm Calm - N/A   Clear
11:15 PM 35.6 °F - 26.6 °F 70% 30.34 in 10.0 mi Calm Calm - N/A   Clear
11:35 PM 35.6 °F - 26.6 °F 70% 30.33 in 10.0 mi Calm Calm - N/A   Clear
11:55 PM 35.6 °F 32.8 °F 26.6 °F 70% 30.33 in 10.0 mi NW 3.5 mph - N/A   Clear